Flag for Austria Weather past 2 weeks in Linz, Upper Austria, Austria

Now
46 °F

Sunny.


Feels Like: 46 °F
Forecast: 39 / 64 °F
Wind: 2 mph from North

Location: Linz / Hoersching-Flughafen


UV Index: 0 (Low)

Visibility: 10 mi


Pressure: 29.83 "Hg

Humidity: 62%

Dew point: 34 °F

Location of LinzLocation

Historic Weather in Linz

°F

Linz temperature yesterday

Maximum temperature yesterday: 54 °F (at 3:20 PM)
Minimum temperature yesterday: 30 °F (at 3:20 AM)
Average temperature yesterday: 42 °F

Past Weeks' High & Low Weather Summary

 TemperatureHumidityPressure
High72 °F (Apr 3, 2:50 PM)100% (Apr 7, 1:20 AM)30.36 "Hg (Apr 7, 1:20 AM)
Low30 °F (Apr 17, 3:20 AM)29% (Apr 3, 5:20 PM)29.68 "Hg (Apr 3, 3:20 PM)
Average50 °F73%30.04 "Hg
* Reported Apr 3 9:20 AM — Apr 18 9:50 AM, Linz, Weather by CustomWeather, © 2014

Note: Actual official high and low records may vary slightly from our data, if they occured in-between our weather recording intervals... More about our weather records

Advertising

Historic Weather Conditions — Data for Previous 24 hours

 ConditionsComfort  
Time TempWeatherWind HumidityBarometerVisibility
9:50 AM
Apr 18
45 °FPassing clouds.3 mph66%29.86 "HgN/A
9:20 AM43 °FPassing clouds.3 mph76%29.86 "HgN/A
8:50 AM41 °FPassing clouds.5 mph76%29.86 "HgN/A
8:20 AM37 °FPassing clouds.3 mph87%29.86 "HgN/A
7:50 AM36 °FSunny.1 mph87%29.89 "Hg10 mi
7:20 AM34 °FSunny.1 mph93%29.89 "Hg10 mi
6:50 AM32 °FClear.2 mph93%29.89 "Hg10 mi
6:20 AM32 °FClear.1 mph93%29.89 "Hg10 mi
5:50 AM32 °FClear.1 mph93%29.92 "Hg10 mi
5:20 AM30 °FClear.1 mph93%29.92 "Hg10 mi
4:50 AM30 °FClear.1 mph93%29.92 "Hg10 mi
4:20 AM30 °FClear.2 mph93%29.92 "Hg10 mi
3:50 AM32 °FClear.1 mph93%29.95 "Hg10 mi
3:20 AM32 °FChilly.2 mph93%29.95 "HgN/A
2:50 AM32 °FChilly.2 mph93%29.95 "HgN/A
2:20 AM34 °FChilly.1 mph93%29.98 "HgN/A
1:50 AM34 °FChilly.2 mph93%29.98 "HgN/A
1:20 AM36 °FChilly.1 mph87%29.98 "HgN/A
12:50 AM36 °FChilly.2 mph87%30.01 "HgN/A
12:20 AM36 °FChilly.2 mph93%30.01 "HgN/A
11:50 PM
Apr 17
37 °FChilly.1 mph81%30.01 "HgN/A
11:20 PM39 °FChilly.3 mph75%30.04 "HgN/A
10:50 PM39 °FClear.2 mph75%30.04 "Hg10 mi
10:20 PM41 °FClear.2 mph70%30.04 "Hg10 mi
9:50 PM43 °FClear.1 mph66%30.04 "Hg10 mi
9:20 PM45 °FClear.2 mph57%30.04 "Hg10 mi
8:50 PM45 °FSunny.2 mph61%30.04 "Hg10 mi
8:20 PM48 °FSunny.2 mph46%30.07 "Hg10 mi
7:50 PM50 °FSunny.5 mph43%30.07 "Hg10 mi
6:50 PM52 °FPassing clouds.8 mph44%30.07 "HgN/A
6:20 PM52 °FSunny.9 mph44%30.09 "Hg10 mi
5:50 PM54 °FPassing clouds.7 mph41%30.09 "HgN/A
5:20 PM54 °FPassing clouds.8 mph44%30.09 "HgN/A
4:50 PM54 °FPassing clouds.7 mph41%30.12 "HgN/A
4:20 PM54 °FPassing clouds.6 mph41%30.12 "HgN/A
3:50 PM54 °FPassing clouds.7 mph41%30.15 "HgN/A
3:20 PM54 °FPassing clouds.8 mph41%30.15 "HgN/A
2:50 PM52 °FPassing clouds.8 mph47%30.18 "HgN/A
2:20 PM52 °FPassing clouds.6 mph44%30.18 "HgN/A
1:50 PM52 °FScattered clouds.6 mph44%30.21 "HgN/A
1:20 PM50 °FScattered clouds.6 mph47%30.21 "HgN/A
12:50 PM50 °FScattered clouds.3 mph43%30.24 "HgN/A
12:20 PM50 °FScattered clouds.5 mph50%30.24 "HgN/A
11:50 AM48 °FPassing clouds.5 mph46%30.27 "HgN/A
11:20 AM48 °FPassing clouds.3 mph54%30.27 "HgN/A
Weather by CustomWeather, © 2014

See weather overview